Hourly Weather Celso Ramos

Today, 12 June, Saturday

Time Temperature Precipitation Wind Pressure Humidity
00:00 +7°C° 0 mm 0 mps 702 mmHg 97%
01:00 +7°C° 0 mm 0 mps 702 mmHg 97%
02:00 +6°C° 0 mm 0 mps 702 mmHg 97%
03:00 +6°C° 0 mm 0 mps 702 mmHg 97%
04:00 +6°C° 0 mm 0 mps 702 mmHg 97%
05:00 +5°C° 0 mm 0 mps 702 mmHg 97%
06:00 +5°C° 0 mm 0 mps 702 mmHg 97%
07:00 +6°C° 0 mm 0 mps 702 mmHg 91%
08:00 +8°C° 0 mm 0 mps 703 mmHg 86%
09:00 +9°C° 0 mm 0 mps 703 mmHg 80%
10:00 +11°C° 0 mm 0 mps 703 mmHg 70%
11:00 +13°C° 0 mm 0 mps 703 mmHg 59%
12:00 +15°C° 0 mm 1 mps 703 mmHg 49%
13:00 +16°C° 0 mm 1 mps 703 mmHg 50%
14:00 +16°C° 0 mm 1 mps 702 mmHg 51%
15:00 +16°C° 0 mm 1 mps 702 mmHg 51%
16:00 +14°C° 0 mm 1 mps 702 mmHg 61%
17:00 +12°C° 0 mm 1 mps 702 mmHg 72%
18:00 +10°C° 0 mm 0 mps 702 mmHg 82%
19:00 +9°C° 0 mm 0 mps 702 mmHg 83%
20:00 +8°C° 0 mm 0 mps 702 mmHg 85%
21:00 +8°C° 0 mm 0 mps 703 mmHg 86%
22:00 +7°C° 0 mm 0 mps 703 mmHg 87%
23:00 +7°C° 0 mm 0 mps 703 mmHg 88%

Tomorrow, 13 June, Sunday

Time Temperature Precipitation Wind Pressure Humidity
00:00 +8°C° 0 mm 1 mps 703 mmHg 89%
01:00 +8°C° 0 mm 1 mps 703 mmHg 90%
02:00 +7°C° 0 mm 1 mps 703 mmHg 91%
03:00 +7°C° 0 mm 1 mps 702 mmHg 91%
04:00 +7°C° 0 mm 1 mps 703 mmHg 92%
05:00 +7°C° 0 mm 1 mps 703 mmHg 92%
06:00 +7°C° 0 mm 1 mps 703 mmHg 92%
07:00 +8°C° 0 mm 1 mps 703 mmHg 86%
08:00 +10°C° 0 mm 1 mps 703 mmHg 79%
09:00 +11°C° 0 mm 1 mps 704 mmHg 73%
10:00 +14°C° 0 mm 1 mps 704 mmHg 66%
11:00 +16°C° 0 mm 1 mps 704 mmHg 59%
12:00 +19°C° 0 mm 1 mps 704 mmHg 53%
13:00 +20°C° 0 mm 1 mps 704 mmHg 52%
14:00 +21°C° 0 mm 1 mps 703 mmHg 51%
15:00 +21°C° 0 mm 1 mps 703 mmHg 50%
16:00 +19°C° 0 mm 1 mps 703 mmHg 61%
17:00 +16°C° 0 mm 1 mps 702 mmHg 71%
18:00 +14°C° 0 mm 1 mps 702 mmHg 81%
19:00 +13°C° 0 mm 1 mps 702 mmHg 84%
20:00 +12°C° 0 mm 1 mps 703 mmHg 87%
21:00 +11°C° 0 mm 1 mps 703 mmHg 90%
22:00 +10°C° 0 mm 1 mps 703 mmHg 91%
23:00 +10°C° 0 mm 1 mps 703 mmHg 91%

Day after tomorrow, 14 June, Monday

Time Temperature Precipitation Wind Pressure Humidity
00:00 +9°C° 0 mm 1 mps 703 mmHg 92%
01:00 +9°C° 0 mm 1 mps 703 mmHg 93%
02:00 +9°C° 0 mm 1 mps 703 mmHg 94%
03:00 +8°C° 0 mm 1 mps 703 mmHg 94%
04:00 +8°C° 0 mm 1 mps 702 mmHg 95%
05:00 +8°C° 0 mm 1 mps 702 mmHg 95%
06:00 +8°C° 0 mm 1 mps 702 mmHg 96%
07:00 +9°C° 0 mm 1 mps 703 mmHg 90%
08:00 +11°C° 0 mm 1 mps 703 mmHg 85%
09:00 +12°C° 0 mm 1 mps 704 mmHg 79%
10:00 +15°C° 0 mm 1 mps 704 mmHg 72%
11:00 +18°C° 0 mm 1 mps 704 mmHg 64%
12:00 +21°C° 0 mm 1 mps 704 mmHg 56%
13:00 +21°C° 0 mm 1 mps 703 mmHg 55%
14:00 +22°C° 0 mm 1 mps 703 mmHg 53%
15:00 +22°C° 0 mm 1 mps 702 mmHg 52%
16:00 +20°C° 0 mm 1 mps 702 mmHg 64%
17:00 +16°C° 0 mm 1 mps 702 mmHg 76%
18:00 +13°C° 0 mm 0 mps 702 mmHg 88%
19:00 +12°C° 0 mm 0 mps 702 mmHg 90%
20:00 +12°C° 0 mm 0 mps 702 mmHg 91%
21:00 +11°C° 0 mm 0 mps 702 mmHg 93%
22:00 +11°C° 0 mm 0 mps 702 mmHg 93%
23:00 +10°C° 0 mm 0 mps 702 mmHg 94%

15 June, Tuesday

Time Temperature Precipitation Wind Pressure Humidity
00:00 +10°C° 0 mm 0 mps 702 mmHg 94%
01:00 +10°C° 0 mm 0 mps 702 mmHg 95%
02:00 +9°C° 0 mm 0 mps 702 mmHg 95%
03:00 +9°C° 0 mm 0 mps 702 mmHg 95%
04:00 +9°C° 0 mm 0 mps 702 mmHg 95%
05:00 +9°C° 0 mm 0 mps 702 mmHg 96%
06:00 +8°C° 0 mm 0 mps 702 mmHg 96%
07:00 +10°C° 0 mm 0 mps 702 mmHg 92%
08:00 +11°C° 0 mm 0 mps 703 mmHg 89%
09:00 +12°C° 0 mm 0 mps 703 mmHg 86%
10:00 +14°C° 0 mm 0 mps 703 mmHg 77%
11:00 +18°C° 0 mm 1 mps 703 mmHg 69%
12:00 +20°C° 0 mm 1 mps 703 mmHg 60%
13:00 +20°C° 0 mm 1 mps 703 mmHg 59%
14:00 +21°C° 0 mm 1 mps 702 mmHg 58%
15:00 +21°C° 0 mm 1 mps 702 mmHg 57%
16:00 +19°C° 0 mm 1 mps 702 mmHg 68%
17:00 +16°C° 0 mm 1 mps 702 mmHg 79%
18:00 +14°C° 0 mm 1 mps 702 mmHg 90%
19:00 +12°C° 0 mm 1 mps 702 mmHg 92%
20:00 +11°C° 0 mm 1 mps 702 mmHg 94%
21:00 +10°C° 0 mm 1 mps 703 mmHg 97%
22:00 +10°C° 0 mm 1 mps 703 mmHg 97%
23:00 +9°C° 0 mm 1 mps 703 mmHg 96%

16 June, Wednesday

Time Temperature Precipitation Wind Pressure Humidity
00:00 +9°C° 0 mm 1 mps 703 mmHg 96%
01:00 +8°C° 0 mm 1 mps 703 mmHg 97%
02:00 +8°C° 0 mm 1 mps 703 mmHg 97%
03:00 +7°C° 0 mm 1 mps 703 mmHg 97%
04:00 +7°C° 0 mm 1 mps 703 mmHg 97%
05:00 +7°C° 0 mm 1 mps 703 mmHg 97%
06:00 +6°C° 0 mm 1 mps 702 mmHg 97%
07:00 +7°C° 0 mm 1 mps 703 mmHg 93%
08:00 +8°C° 0 mm 1 mps 703 mmHg 88%
09:00 +10°C° 0 mm 1 mps 703 mmHg 84%
10:00 +11°C° 0 mm 1 mps 703 mmHg 76%
11:00 +13°C° 0 mm 1 mps 703 mmHg 69%
12:00 +15°C° 0 mm 1 mps 703 mmHg 62%
13:00 +15°C° 0 mm 1 mps 703 mmHg 61%
14:00 +15°C° 0 mm 1 mps 702 mmHg 61%
15:00 +15°C° 0 mm 2 mps 702 mmHg 61%
16:00 +13°C° 0 mm 1 mps 702 mmHg 68%
17:00 +12°C° 0 mm 1 mps 702 mmHg 76%
18:00 +10°C° 0 mm 1 mps 702 mmHg 84%
19:00 +9°C° 0 mm 1 mps 702 mmHg 84%
20:00 +8°C° 0 mm 1 mps 702 mmHg 85%
21:00 +7°C° 0 mm 1 mps 703 mmHg 85%
22:00 +7°C° 0 mm 1 mps 703 mmHg 87%
23:00 +7°C° 0 mm 1 mps 703 mmHg 88%

17 June, Thursday

Time Temperature Precipitation Wind Pressure Humidity
00:00 +7°C° 0 mm 1 mps 703 mmHg 90%
01:00 +8°C° 0 mm 1 mps 703 mmHg 90%
02:00 +9°C° 0 mm 1 mps 702 mmHg 90%
03:00 +10°C° 0 mm 1 mps 702 mmHg 90%
04:00 +9°C° 0 mm 2 mps 702 mmHg 91%
05:00 +9°C° 0 mm 2 mps 702 mmHg 91%
06:00 +9°C° 0 mm 2 mps 702 mmHg 91%
07:00 +9°C° 0 mm 2 mps 702 mmHg 90%
08:00 +10°C° 0 mm 2 mps 702 mmHg 89%
09:00 +10°C° 0 mm 2 mps 703 mmHg 88%
10:00 +10°C° 0.1 mm 2 mps 703 mmHg 89%
11:00 +11°C° 0.1 mm 1 mps 703 mmHg 90%
12:00 +11°C° 0.1 mm 1 mps 703 mmHg 91%
13:00 +12°C° 0 mm 1 mps 702 mmHg 89%
14:00 +12°C° 0 mm 1 mps 702 mmHg 87%
15:00 +13°C° 0 mm 1 mps 702 mmHg 85%
16:00 +12°C° 0.4 mm 1 mps 702 mmHg 89%
17:00 +12°C° 0.4 mm 1 mps 702 mmHg 93%
18:00 +11°C° 0.4 mm 1 mps 702 mmHg 98%
19:00 +11°C° 0.3 mm 1 mps 702 mmHg 98%
20:00 +11°C° 0.3 mm 1 mps 702 mmHg 98%
21:00 +11°C° 0.3 mm 1 mps 702 mmHg 98%
22:00 +11°C° 0.3 mm 1 mps 702 mmHg 98%
23:00 +10°C° 0.3 mm 0 mps 702 mmHg 98%
Show more

We Need Your Consent

Meteoprog and our Service Providers may store and access personal data such as cookies, device identifiers or other similar technologies on your device and process such data to personalise content and ads, as well as provide social media features and to analyse the traffic.

  • Store and/or access information on your device

    Cookies, device identifiers or other information can be stored or accessed on your device for the purposes indicated above.

  • Personalised ads and content, ad and content measurement, audience insights, and products development

    Ads and content can be personalised based on a profile. More data can be added to better personalise ads and content. Ad and content performance can be measured. Insights about the audience who saw the ads and content can be derived. Such data can be used to develop or improve user’s experience, systems and software.

By clicking ‘I Agree’ you will allow the use of indicated cookies, device identifiers, web beacons or other similar technologies. Your settings can be changed in the browser on your device.

For certain purposes, legitimate interests may be relied on, rather than consent. You can read more about this in our Privacy and Cookie Policy.